Location: Big Creek Canyon
(37.2102°N, 119.3301°W)
Time: 07:01:58
(UTC+00:00)

Daily predictions for brighter satellites

Satellite Brightness Start Highest point End
(mag) Time Altitude Azimuth Time Altitude Azimuth Time Altitude Azimuth
Cosmos 2333 Rocket 3.6 12:13:27 30° NE 12:13:27 30° NE 12:16:18 10° NNE
Cosmos 2219 Rocket 3.4 12:17:16 36° NE 12:17:16 36° NE 12:20:39 10° NNE
ATLAS 3B CENTAUR R/B 4.5 12:22:47 29° SSW 12:24:01 30° S 12:36:11 10° SE
COSMOS 2428 3.0 12:30:54 65° E 12:30:54 65° E 12:36:08 10° NNE
Cosmos 1461 4.4 12:30:57 39° ESE 12:30:57 39° ESE 12:35:04 10° NE
Meteor 2-5 Rocket 4.4 12:34:47 45° SSE 12:34:47 45° SSE 12:38:38 10° S
Cosmos 921 Rocket 4.0 12:43:58 42° ENE 12:43:58 42° ENE 12:47:24 10° NNE
COSMO-SKYMED 1 4.0 12:41:24 10° SE 12:45:21 36° ENE 12:47:20 23° NNE
IRIDIUM 104 4.4 12:45:32 10° S 12:50:43 73° E 12:55:56 10° N
SJ 16-02 2.0 12:52:18 47° SSE 12:52:18 47° SSE 12:55:28 10° SSE
CZ-2C R/B 3.0 12:59:14 25° S 12:59:42 25° SSE 13:03:02 10° ESE
IRIDIUM 114 4.2 12:54:37 10° S 12:59:50 89° E 13:05:05 10° N
USA 276 3.9 13:05:16 30° ESE 13:05:16 30° ESE 13:07:02 10° ESE
CZ-4B R/B 3.4 13:00:30 10° NNE 13:04:01 50° E 13:07:38 10° S
Meteor 1-24 Rocket 3.6 13:07:13 58° WNW 13:07:39 60° W 13:13:13 10° S
CZ-4B R/B 3.0 13:05:05 10° SSE 13:06:46 28° SSE 13:06:46 28° SSE
IRIDIUM 103 4.1 13:03:47 10° S 13:08:59 75° W 13:14:13 10° N
ADEOS 3.6 13:05:50 10° N 13:18:15 - SSW 13:10:27 53° NW
Meteor 2-10 4.0 13:05:27 10° S 13:11:07 81° W 13:16:42 10° N
Okean 1-7 Rocket 4.5 13:09:50 10° N 13:14:15 50° E 13:18:37 10° SSE
Cosmos 1513 Rocket 4.4 13:08:00 10° S 13:14:20 90° SE 13:20:38 10° N
Cosmos 1844 4.1 13:15:29 43° WSW 13:15:29 43° WSW 13:20:47 10° S
NOSS 0 Rocket 4.0 13:10:08 10° SSW 13:16:19 82° ESE 13:22:31 10° NNE
Cosmos 540 Rocket 3.9 13:11:33 10° S 13:16:34 62° ESE 13:21:37 10° NNE
Lacrosse 5 rocket 3.9 13:15:54 10° NNE 13:16:59 11° NNE 13:18:03 10° NE
Cosmos 1689 Rocket 4.0 13:16:55 10° SE 13:19:28 29° ENE 13:21:07 17° NNE
BREEZE M DEB (TANK) 3.2 13:20:28 26° SE 13:20:28 26° SE 13:22:27 10° ENE
Cosmos 990 Rocket 3.9 13:18:25 20° NNW 13:21:59 84° ENE 13:27:07 10° SSE
Cosmos 1891 Rocket 4.3 13:16:17 10° S 13:22:30 76° W 13:28:38 10° N
MOS 1 Rocket 3.7 13:18:02 10° SSE 13:23:08 69° ENE 13:27:58 10° N
SAR-Lupe-4 4.4 13:21:26 10° SSE 13:24:53 49° ENE 13:28:04 12° N
Cosmos 1464 Rocket 3.8 13:19:52 10° S 13:25:58 78° W 13:32:08 10° N
IRIDIUM 106 4.4 13:22:18 10° SSW 13:27:19 49° W 13:32:23 10° N
H-2A R/B 2.7 13:23:44 10° NNE 13:27:26 76° ESE 13:31:09 10° S
Cosmos 1455 Rocket 3.0 13:25:54 10° SSW 13:30:13 59° W 13:34:31 10° N
Cosmos 1072 Rocket 4.4 13:24:21 10° SSW 13:30:28 65° W 13:36:42 10° N
Atlas Centaur 2 3.8 13:25:11 17° SW 13:31:10 47° SSE 13:39:15 10° E
Cosmos 1400 Rocket 4.3 13:28:17 10° SSE 13:32:02 38° E 13:35:52 10° NNE
SKYMED 2 3.5 13:29:00 10° S 13:33:16 61° W 13:35:54 23° NNW
SAR-Lupe-1 4.3 13:32:15 10° SSE 13:35:47 69° ENE 13:39:16 11° N
Cosmos 1844 Rocket 4.1 13:39:02 19° WSW 13:39:02 19° WSW 13:41:42 10° SSW
SL-4 R/B 3.5 13:34:29 10° SSW 13:37:49 33° SE 13:41:24 10° ENE
SL-16 R/B 4.2 13:35:06 10° SSE 13:39:57 31° ESE 13:44:51 10° NE
OAO 2 Rocket 3.4 13:37:56 30° WSW 13:40:18 69° S 13:45:12 10° E
Chandra Rocket (1) 3.5 13:39:13 16° SW 13:41:16 22° S 13:43:34 10° SE
Cosmos 1763 Rocket 3.9 13:38:47 19° WSW 13:41:52 38° WNW 13:46:42 10° N
PSLV R/B 4.2 13:41:21 10° NNE 13:45:18 68° ESE 13:49:19 10° S
Cosmos 2278 Rocket 2.4 13:40:35 10° NNW 13:46:16 72° ENE 13:51:55 10° SSE
Cosmos 841 Rocket 3.3 13:42:03 10° SSW 13:47:10 72° WNW 13:52:18 10° NNE
GPS 2-04 Rocket1 3.7 13:47:27 25° WSW 13:49:13 37° SSW 13:53:04 10° SE
H-2A R/B 4.0 13:45:18 10° NNE 13:49:34 42° E 13:53:50 10° S
Cosmos 1898 Rocket 3.4 13:45:09 12° NNW 13:49:52 62° WSW 13:54:57 10° S
deb Chang Zheng 4 4.1 13:46:36 10° N 13:50:25 33° WNW 13:54:13 10° SW
SJ-7 4.3 13:46:20 10° N 13:50:30 80° WNW 13:54:34 10° SSW
Okean O Rocket 3.8 13:46:48 10° NE 13:50:34 28° E 13:54:18 10° SSE
ATLAS CENTAUR R/B 3.0 13:47:24 10° S 13:50:46 32° ESE 13:54:05 10° NE
SMAP 4.4 13:46:30 10° NNE 13:50:55 42° E 13:55:18 10° S
Cosmos 2237 Rocket 2.1 13:47:15 10° SSW 13:52:51 67° WNW 13:58:31 10° NNE
Cosmos 2333 Rocket 3.5 13:55:32 18° NW 13:55:32 18° NW 13:59:17 10° N
CZ-2C R/B 3.8 13:51:28 10° SE 13:56:20 43° ENE 14:01:18 10° N
Cosmos 1570 Rocket 3.9 13:51:45 10° SSW 13:56:57 72° WNW 14:02:11 10° NNE
YAOGAN 6 2.5 13:54:11 10° N 13:57:52 67° WNW 14:01:32 10° SSW
Cosmos 1092 Rocket 4.5 13:52:57 10° N 13:59:03 63° E 14:05:09 10° SSE
Cosmos 1953 2.6 13:55:32 10° SSW 13:59:20 43° W 14:03:08 10° N
Cosmos 2219 Rocket 3.4 13:59:05 19° WNW 13:59:30 19° NW 14:03:22 10° N
FALCON 9 DEB 3.8 13:58:53 27° WNW 14:00:00 34° NW 14:03:10 10° NNE
Cosmos 2034 Rocket 4.1 13:56:43 10° SSW 14:02:56 56° W 14:09:13 10° N
Cosmos 1602 Rocket 3.9 14:01:52 10° N 14:06:19 72° E 14:10:45 10° SSE
USA 307 3.9 14:03:17 10° SSW 14:07:20 47° SE 14:11:24 10° ENE
PSLV R/B 4.3 14:04:13 10° S 14:08:06 43° W 14:12:03 10° NNW
ERS-2 3.2 14:06:47 10° SSW 14:09:52 26° W 14:12:15 14° NW
Cosmos 1461 4.3 14:07:25 16° W 14:09:53 24° NW 14:13:44 10° N
Cosmos 1908 3.4 14:07:20 10° SSW 14:11:00 47° W 14:14:42 10° N
COSMOS 2428 4.1 14:13:02 14° W 14:15:16 17° NW 14:18:57 10° NNW
GEOS 3 Rocket 4.0 14:10:37 10° SSE 14:15:44 49° WSW 14:20:58 10° NW
Cosmos 2208 Rocket 4.1 14:10:36 10° SSW 14:15:58 60° WNW 14:21:22 10° N
USA 308 3.6 14:11:52 10° SSW 14:16:00 57° SE 14:20:08 10° NE
Nadezhda 4 Rocket 4.1 14:10:45 10° NNW 14:16:40 54° W 14:22:34 10° SSW
USA 305 3.4 14:12:45 10° SSW 14:16:56 63° SE 14:21:08 10° NE
MOS 1-B 4.3 14:13:08 10° NNE 14:18:55 84° WNW 14:24:42 10° SSW
Cosmos 1315 Rocket 4.1 14:15:38 10° SSE 14:19:21 43° E 14:23:04 10° NNE
Cosmos 1634 Rocket 4.0 14:13:39 10° S 14:19:49 88° E 14:26:00 10° N
COSMO-SKYMED 1 4.1 14:18:46 10° SW 14:21:37 17° W 14:24:28 10° NW
Cosmos 1814 Rocket 4.2 14:18:20 10° SW 14:23:14 45° WNW 14:28:10 10° N
CORIOLIS 4.5 14:18:38 10° NNE 14:23:59 73° ESE 14:29:18 10° S
Cosmos 1937 Rocket 4.0 14:20:37 10° NNW 14:25:30 40° W 14:30:20 10° S
Cosmos 1980 4.3 14:20:40 10° SW 14:25:43 33° WNW 14:30:48 10° N
CENTAUR R/B 3.3 14:21:19 10° SSW 14:26:44 54° ESE 14:33:06 10° NE
USA 306 3.0 14:24:28 10° SW 14:28:42 80° SE 14:32:57 10° NE
NOAA 11 4.4 14:23:34 10° NNE 14:29:02 77° ESE 14:34:29 10° S
Envisat 3.5 14:24:49 10° N 14:29:28 37° WNW 14:34:06 10° SW
Cosmos 372 Rocket 4.0 14:24:28 10° NNW 14:29:44 76° WSW 14:34:56 10° S
NOAA 6 4.2 14:26:43 10° N 14:31:44 50° WNW 14:36:43 10° SW
USA 238 DEB 3.7 14:31:02 10° SSW 14:37:33 88° ESE 14:44:21 10° NNE
USA 238 3.7 14:31:10 10° SSW 14:37:40 88° ESE 14:44:29 10° NNE
CZ-2C R/B 1.8 14:35:05 10° WSW 14:39:04 55° S 14:42:46 10° E
BREEZE-M DEB (TANK) 2.4 14:37:02 10° NW 14:43:43 80° SW 14:46:19 10° SE
